Regional Weather Roundup
Issued by NWS

Home | Current Version | Previous Version | Graphics & Text | Print | Product List | Glossary On
Versions: 1 2 3 4 5 6 7 8 9 10 11 12 13 14 15 16 17 18 19 20 21 22 23 24 25 26 27 28 29 30 31 32 33 34 35 36 37 38 39 40 41 42 43 44 45 46 47 48 49 50
000
ASUS43 KMKX 171920
RWRWI

WISCONSIN REGIONAL WEATHER ROUNDUP
NATIONAL WEATHER SERVICE MILWAUKEE/SULLIVAN WI
100 PM CST SAT FEB 17 2018

NOTE: "FAIR" INDICATES FEW OR NO CLOUDS BELOW 12,000 FEET WITH NO
SIGNIFICANT WEATHER AND/OR OBSTRUCTIONS TO VISIBILITY.

WIZ001-002-006>008-014>016-023>028-172000-
NORTHWEST WISCONSIN

CITY           SKY/WX    TMP DP  RH WIND       PRES   REMARKS
SUPERIOR ARPT  FAIR      31  15  52 W17       29.81S WCI  19
ASHLAND        FAIR      30  17  58 SW12      29.78F WCI  20
HAYWARD        FAIR      30  18  60 SW9       29.79F WCI  22
SIREN          FAIR      32  18  56 W12       29.83F WCI  23
CUMBERLAND     FAIR      30  19  64 SW8       29.82F WCI  23
RICE LAKE      FAIR      30  21  70 SW8       29.85F WCI  22
CHETEK         CLOUDY    29  21  71 SW6       29.84F WCI  23
LADYSMITH      CLOUDY    28  20  74 S8        29.84F WCI  19
EAU CLAIRE     CLOUDY    26  21  81 SW9       29.87F WCI  17
MENOMONIE      CLOUDY    31  23  71 W9        29.87F WCI  23
NEW RICHMOND   FAIR      32  21  64 SW6       29.85F WCI  26
OSCEOLA        FAIR      33  23  64 SW6       29.88F WCI  28
$$

WIZ003>005-009-010-017-018-172000-
NORTH CENTRAL WISCONSIN

CITY           SKY/WX    TMP DP  RH WIND       PRES   REMARKS
MANITOWISH WTR FAIR      26  16  67 SW13      29.74F WCI  15
ARBOR VITAE    FAIR      27  18  70 W13       29.76F WCI  16
WOODRUFF       FAIR      27  18  70 W13       29.76F WCI  16
RHINELANDER    CLOUDY    23  17  78 SW10      29.78F WCI  12
EAGLE RIVER    FAIR      25  15  65 SW10      29.75F WCI  15
LAND O LAKES   FAIR      29  16  57 SW9       29.74F WCI  21
PHILLIPS       CLOUDY    24  19  79 SW10      29.79F WCI  14
TOMAHAWK       CLOUDY    24  16  73 SW6       29.81F WCI  17
MEDFORD        LGT SNOW  22  19  87 SW6       29.81F WCI  14
MERRILL        LGT SNOW  23  19  87 SW7       29.84F WCI  14
$$

WIZ029-030-035-036-043>047-172000-
CENTRAL WISCONSIN

CITY           SKY/WX    TMP DP  RH WIND       PRES   REMARKS
WAUSAU         LGT SNOW  22  19  89 SW8       29.83F VSB 3/4 WCI  12
MOSINEE        LGT SNOW  21  21 100 SW8       29.85F VSB 3/4 WCI  12
MARSHFIELD     SNOW      23  21  92 W9        29.84F VSB 1/4 WCI  13
STEVENS POINT  MIX PCPN  21  20  96 SW8       29.87F VSB 3/4 WCI  12
WAUPACA        LGT SNOW  27  22  80 SW6       29.90F VSB 1   WCI  20
WAUTOMA        FLURRIES  25  21  85 SW5       29.89F WCI  19
WISC RAPIDS    LGT SNOW  23  19  85 SW3       29.88F VSB 3/4
CAMP DOUGLAS   LGT SNOW  27  23  86 SW6       29.89F VSB 7/8 WCI  20
$$

WIZ011>013-019>022-031-037>040-048>050-172000-
NORTHEAST WISCONSIN

CITY           SKY/WX    TMP DP  RH WIND       PRES   REMARKS
ANTIGO         MIX PCPN  21  19  90 SW9       29.81F VSB 1   WCI  11
SHAWANO        LGT SNOW  26  21  81 SW12G17   29.88F WCI  16
OCONTO         CLOUDY    25  16  66 SW12G20   29.88F WCI  15
STURGEON BAY   LGT SNOW  25  18  74 SW16      29.87F WCI  12
GREEN BAY      LGT SNOW  24  17  74 SW13      29.90F WCI  12
MANITOWOC      CLOUDY    31  11  43 SW10      29.90F WCI  22
APPLETON       CLOUDY    25  16  68 SW15      29.87F WCI  12
CLINTONVILLE   LGT SNOW  25  20  83 SW8       29.88F WCI  16
OSHKOSH        LGT SNOW  25  17  72 SW9G17    29.89F WCI  15
$$

WIZ032>034-041-042-053>061-172000-
SOUTHWEST WISCONSIN

CITY           SKY/WX    TMP DP  RH WIND       PRES   REMARKS
LA CROSSE      LGT SNOW  27  23  85 S8        29.91F VSB 1   WCI  19
SPARTA         LGT SNOW  25  23  90 S6        29.91F VSB 1   WCI  18
VIROQUA        CLOUDY    24  23  96 SW7       29.88F VSB 1/2 WCI  16
BOSCOBEL       SNOW      27  23  85 SW3       29.92F VSB 1/2
PRAIRIE DU CHI MIX PCPN  27  24  89 CALM      29.93F
PLATTEVILLE    CLOUDY    27  26  94 CALM      29.91F VSB 3/4
$$

WIZ056-057-062-063-064-067-068-172000-
SOUTH CENTRAL WISCONSIN

CITY           SKY/WX    TMP DP  RH WIND       PRES   REMARKS
REEDSBURG      CLOUDY    29  14  53 SW14      29.89S WCI  18
BARABOO/DELLS  CLOUDY    28  18  67 S9        29.87F WCI  19
LONE ROCK      LGT SNOW  28  20  71 SW7       29.92F WCI  21
MINERAL POINT  LGT SNOW  28  27  93 SW5       29.90F VSB 1   WCI  23
MADISON        CLOUDY    28  15  58 SW7       29.92F WCI  21
MIDDLETON      CLOUDY    31  18  58 SW6       29.92F WCI  26
WATERTOWN      CLOUDY    28  19  70 SW5       29.91F HAZE    WCI  22
MONROE         PTSUNNY   32  23  69 S15       29.90F WCI  22
JANESVILLE     CLOUDY    32  21  64 SW9       29.93F WCI  24
$$

WIZ051-052-058>065-066-070>072-172000-
SOUTHEAST WISCONSIN

CITY           SKY/WX    TMP DP  RH WIND       PRES   REMARKS
MILWAUKEE      CLOUDY    32  15  49 SW12      29.95F WCI  23
WAUKESHA       CLOUDY    28  12  50 SW12G21   29.94F WCI  18
MILWAUKEE/TIMM CLOUDY    32   9  37 SW12      29.95F WCI  23
RACINE         CLOUDY    32  17  54 SW7       29.97F WCI  26
BURLINGTON     FAIR      31  20  65 CALM      29.93F
KENOSHA        CLOUDY    33  22  63 VRB6      29.94F WCI  28
FOND DU LAC    LGT SNOW  26  16  65 SW13      29.90F WCI  15
SHEBOYGAN      CLOUDY    30  12  47 SW13      29.91F WCI  20
WEST BEND      CLOUDY    32  12  43 SW8       29.91F WCI  25
JUNEAU         CLOUDY    27  16  62 SW12      29.92F WCI  17
$$

LSZ147-162-172000-
LAKE SUPERIOR

STATION/POSITION TIME  TEMP    WIND        PRES    WAVE
                       AIR SEA DIR/SP/G            HT/PER
                 (UTC) (F)     (DEG/KT/KT) (MB)    (FT/S)
DEVILS ISLAND    1900   26     240/ 19/ 24 1008.6F
SAXON HARBOR     1840   31     270/  9/ 20 1008.1F
$$

LMZ867-665-643>646-172000-
LAKE MICHIGAN

STATION/POSITION TIME  TEMP    WIND        PRES    WAVE
                       AIR SEA DIR/SP/G            HT/PER
                 (UTC) (F)     (DEG/KT/KT) (MB)    (FT/S)
NORTHPORT PIER   1908   23                 1010.8
KEWAUNEE LAKESHO 1900   28     240/ 13/ 19 1011.7
SHEBOYGAN LAKESH 1900   29     220/ 10/ 12 1013.8F
PORT WASHINGTON  1840   33     240/  8/ 14 1014.9F
MILWAUKEE LAKESH 1900   31     210/  8/  9   N/A
KENOSHA   LAKESH 1900   32     210/  4/  7 1014.2
$$

TC  - TEMPERATURE IN CELSIUS
VSB - VISIBILITY IN STATUTE MILES
WCI - WIND CHILL INDEX
HX  - HEAT INDEX





USA.gov is the U.S. government's official web portal to all federal, state and local government web resources and services.